Regional Weather Roundup
Issued by NWS

Home | Current Version | Previous Version | Graphics & Text | Print | Product List | Glossary On
Versions: 1 2 3 4 5 6 7 8 9 10 11 12 13 14 15 16 17 18 19 20 21 22 23 24 25 26 27 28 29 30 31 32 33 34 35 36 37 38 39 40 41 42 43 44 45 46 47 48 49 50
000
ASUS43 KMPX 260601
RWRMN
WEATHER ROUNDUP FOR MINNESOTA
NATIONAL WEATHER SERVICE TWIN CITIES/CHANHASSEN MN
100 AM CDT THU MAY 26 2016


NOTE: "FAIR" INDICATES FEW OR NO CLOUDS BELOW 12,000 FEET WITH NO
SIGNIFICANT WEATHER AND/OR OBSTRUCTIONS TO VISIBILITY. N/A MEANS
CURRENT SKY AND/OR WEATHER CONDITIONS ARE NOT AVAILABLE.

MNZ060>063-068>070-260700-
   Twin Cities Metro

CITY           SKY/WX    TMP DP  RH WIND       PRES   REMARKS
TWIN CITIES    CLOUDY    67  62  84 SE7       29.79F
6HR MIN TEMP:  66; 6HR MAX TEMP:  76;

ST PAUL        CLEAR     65  62  90 SE8       29.80F
CRYSTAL        CLOUDY    65  60  84 E5        29.78F
BLAINE         CLOUDY    64  64 100 SE6       29.79F
EDEN PRAIRIE   PTCLDY    68  63  84 E6        29.78F
6HR MIN TEMP:  66; 6HR MAX TEMP:  77;

SOUTH ST PAUL  CLOUDY    65  63  91 SE3       29.80F
LAKE ELMO      FAIR      63  63 100 CALM      29.82F
$$
MNZ001>005-007-008-013>017-022>024-027-028-260700-
   Northwest Minnesota

CITY           SKY/WX    TMP DP  RH WIND       PRES   REMARKS
BEMIDJI        CLOUDY    57  54  91 SE10G18   29.76F
HALLOCK        CLOUDY    59  57  94 SW13      29.64S
ROSEAU         CLOUDY    61  55  82 S16       29.68F
WARROAD        CLOUDY    59  55  88 SE20G25   29.71F
THIEF RVR FALL CLOUDY    57  54  88 SW14      29.73S
CROOKSTON      CLOUDY    57  57 100 S5        29.72F
FOSSTON        RAIN      57  57 100 SW17      29.76R
DETROIT LAKES  RAIN      57  55  94 E6        29.76S
MOORHEAD       PTCLDY    57  55  94 CALM      29.72F
PARK RAPIDS    CLOUDY    58  54  86 SE13      29.74F
MAHNOMEN       CLOUDY    58  56  94 W13       29.74S
$$
MNZ006-009>011-018-025>026-260700-
   North Central Minnesota

CITY           SKY/WX    TMP DP  RH WIND       PRES   REMARKS
BAUDETTE       CLOUDY    58  53  84 SE14      29.75S
FLAG ISLAND    CLOUDY    57  55  94 SE10G17   29.72F
INTL FALLS     CLOUDY    58  50  75 SE7       29.79S
6HR MIN TEMP:  58; 6HR MAX TEMP:  62; 6HR PCP:  0.02;

WASKISH        PTCLDY    57  54  88 SE6       29.75F
BIG FORK       PTCLDY    55  52  88 SE3       29.80F
LONGVILLE      CLOUDY    55  54  94 SE6       29.78F
GRAND RAPIDS   CLEAR     53  50  89 E9        29.82F
CRANE LAKE     CLOUDY    55  48  76 SE5       29.85R
ORR            CLOUDY    55  48  76 SE3       29.80S
COOK           MOCLDY    54  48  82 CALM      29.84S
WALKER         CLOUDY    56  54  92 SE5       29.78F
$$
MNZ012-019>021-037-260700-
   Northeast Minnesota

CITY           SKY/WX    TMP DP  RH WIND       PRES   REMARKS
DULUTH         FOG       47  46  97 SE6       29.85F VSB 3/4
6HR MIN TEMP:  46; 6HR MAX TEMP:  51;

ELY            CLOUDY    50  46  87 CALM      29.85S
HIBBING        CLOUDY    50  49  96 SE7       29.84S
EVELETH        MOCLDY    52  50  93 CALM      29.86F
DULUTH HARBOR  CLOUDY    45  43  93 E10       29.89S
TWO HARBORS    CLOUDY    48  45  87 CALM      29.85F
SILVER BAY     CLOUDY    46  46 100 N6        29.85F
GRAND MARAIS     N/A     48  44  86 NE8       29.86F
G MARAIS ARPRT MOCLDY    48  45  87 NE9       29.87F
$$
MNZ029>031-032-039>041-046>048-054>057-064-260700-
   West Central Minnesota

CITY           SKY/WX    TMP DP  RH WIND       PRES   REMARKS
FERGUS FALLS   CLOUDY    61  61 100 N8        29.69F
WHEATON        CLEAR     64  57  77 W6        29.75F
MORRIS         MOCLDY    61  48  63 S10       29.73F
ALEXANDRIA     MOCLDY    68  45  43 S6        29.75F
ELBOW LAKE     FAIR      64  47  55 W15       29.73F
WADENA         PTCLDY    57  55  94 SE8       29.74F
GLENWOOD       CLOUDY    64  50  59 SW6       29.74F
APPLETON       CLOUDY    61  52  72 S7        29.75S
BENSON         CLOUDY    59  52  77 SW1       29.74F
ORTONVILLE     CLOUDY    61  50  67 S3        29.76R
MADISON        CLOUDY    61  52  72 SW12      29.77S
WILLMAR        FAIR      63  54  72 SW3       29.78F
$$
MNZ033>034-036-042>043-049>051-058-059-260700-
   Central Minnesota

CITY           SKY/WX    TMP DP  RH WIND       PRES   REMARKS
ST CLOUD       CLOUDY    60  60 100 CALM      29.80F
6HR MIN TEMP:  60; 6HR MAX TEMP:  73; 6HR PCP: TRACE;

SAUK CENTRE    FAIR      61  60  96 E13       29.77F
PAYNESVILLE    MOCLDY    64  64 100 E7        29.78F
AITKIN         CLOUDY    55  52  88 E3        29.80F HAZE
PINE RIVER     CLOUDY    55  55 100 SE10      29.82F
BRAINERD       FOG       55  55 100 SE6       29.81F VSB 1
STAPLES        CLOUDY    57  57 100 SE6       29.76F
LONG PRAIRIE   MOCLDY    59  59 100 SE8       29.80S
LITTLE FALLS   CLOUDY    59  57  94 SE5       29.78F FOG
LITCHFIELD     MOCLDY    66  54  63 N6        29.79F
BUFFALO        CLOUDY    64  61  91 CALM      29.80F
MAPLE LAKE     MOCLDY    65  64  96 CALM      29.81F
HUTCHINSON     CLEAR     67  56  70 N10G16    29.79F
$$
MNZ037-044-045-052-053-260700-
   East Central Minnesota

CITY           SKY/WX    TMP DP  RH WIND       PRES   REMARKS
PRINCETON        N/A     63  61  94 CALM      29.81S
MORA           FOG       54  52  94 CALM      29.84S VSB 3/4
CAMBRIDGE      HAZE      64  55  72 CALM      29.79S VSB 1/4
RUSH CITY      CLOUDY    60  58  96 N3        29.81F FOG
MOOSE LAKE     FOG       45  43  93 NE5       29.83F VSB 3/4
HINCKLEY       FOG       55  55 100 NE3       29.83F VSB 1/2
CLOQUET        FOG       45  43  93 E7        29.85F VSB 3/4
MCGREGOR       CLOUDY    50  50 100 E9        29.83F VSB 3/4
$$
MNZ071>073-080-081-089-090-097-098-260700-
   Southwest Minnesota

CITY           SKY/WX    TMP DP  RH WIND       PRES   REMARKS
MONTEVIDEO     CLOUDY    63  48  59 SW7       29.78S
GRANITE FALLS  MOCLDY    63  55  74 CALM      29.79S
CANBY          CLOUDY    64  55  70 SW6       29.79R
MARSHALL       CLOUDY    66  52  60 W6        29.78F
REDWOOD FALLS  CLOUDY    65  51  60 SW7       29.77F
OLIVIA         MOCLDY    63  50  63 CALM      29.77F
PIPESTONE      CLOUDY    64  52  63 S5        29.81F
WINDOM         RAIN      64  54  68 SW29G38   29.82S
WORTHINGTON    RAIN      62  52  69 SW23      29.89F
JACKSON        CLOUDY    61  54  77 W24G58    29.94R VSB 1
TRACY          CLOUDY    65  55  68 SW7       29.78F
SLAYTON        LGT RAIN  65  52  63 S28G37    29.79F
$$
MNZ065>067-074>077-082>085-091>093-260700-
   South Central Minnesota

CITY           SKY/WX    TMP DP  RH WIND       PRES   REMARKS
MANKATO        MOCLDY    68  57  68 SE10      29.77F THUNDER
NEW ULM        TSTM      61  57  88 E10       29.83R
ST JAMES       TSTM      64  55  72 NW3       29.80R
FAIRMONT       CLOUDY    68  55  64 SE10      29.80F
GLENCOE        CLOUDY    68  66  94 E7        29.78F
FARIBAULT      CLOUDY    64  63  94 S5        29.80F
OWATONNA       MOCLDY    70  63  78 S13       29.80F
WASECA         LGT RAIN  68  61  77 S12       29.80F
ALBERT LEA     CLOUDY    68  63  83 S6        29.82F
$$
MNZ078>079-086>088-094>096-260700-
   Southeast Minnesota

CITY           SKY/WX    TMP DP  RH WIND       PRES   REMARKS
ROCHESTER      CLEAR     63  62  97 S7        29.84F
6HR MIN TEMP:  63; 6HR MAX TEMP:  74;

RED WING       CLEAR     64  63  94 CALM      29.80F
STANTON        MOCLDY    67  64  88 E5        29.79F
DODGE CENTER   PTCLDY    66  63  88 S13       29.83F
WINONA         PTCLDY    63  61  94 CALM      29.84F FOG
AUSTIN         CLOUDY    66  61  82 S7        29.83F
PRESTON        MOCLDY    64  60  88 S6        29.86F
$$
ABBREVIATIONS USED IN REMARKS
   TC - TEMPERATURES IN CELSIUS
  WCI - WIND CHILL INDEX
   HX - HEAT INDEX
  VSB - VISIBILITY
$$




USA.gov is the U.S. government's official web portal to all federal, state and local government web resources and services.